Location: Asheville, NC
(35.6000°N, 82.5500°W)
Time: 03:04:17
(UTC-05:00)

LilacSat-2 - Pass Details

Date: 05 January 2018
Orbit: 514 x 537 km, 97.5° (Epoch: 21 January)

Event Time Altitude Azimuth Distance (km) Brightness Sun altitude
Rises 05:55:55 0° 24° (NNE) 2,668 ? -20.7°
Reaches altitude 10° 05:58:14 10° 35° (NE) 1,770 ? -20.2°
Maximum altitude 06:01:36 29° 97° (E) 977 ? -19.5°
Drops below altitude 10° 06:04:55 10° 159° (SSE) 1,747 ? -18.9°
Sets 06:07:11 0° 170° (S) 2,625 ? -18.4°
